OneWeb SL0007

operational
NORAD ID: 44060 Int'l Des: 2019-010 Owner: ONEWEB Country: UK Constellation: oneweb
LEOCIRCULARPOLARONEWEB_TYPE

Über OneWeb SL0007

Beschreibung wird geladen...

Live-Position

3D-Globus wird geladen...

Nächste Überflüge

Höhenverlauf

Altitude vs Time

uPlot chart will show altitude changes over time

Zweizeiliger Elementsatz

1 44060U 19010D 25258.54391964 .00000095 00000-0 21771-3 0 9993
2 44060 87.9031 314.0338 0001587 92.5717 267.5595 13.15548956315261
Epoch: 15. Sept. 2025 • Age: 15 hours

Aktueller Status

Höhe 1214.0 km
Geschwindigkeit 7.25 km/s
Subsatellitenpunkt 79.59°N, 90.93°W
Startdatum 28. Mai 2021
Alter 4.3 years
Typ internet

Technische Details

Klassifizierung Payload
Masse 148.00 kg
Trockenmasse 140.00 kg
Gesamtmasse 148.00 kg
Länge 1.30 m
Durchmesser 1.00 m
Spannweite 5.00 m
Form Trapezoid+2 pan
Hersteller ADST
Bus-Typ ARROW
Phasenstatus In Orbit
Besitzer/Staat ONEWEB/UK

Große Konstellationen

Loading constellations...